Regional Weather Roundup
Issued by NWS

Home | Current Version | Previous Version | Text Only | Print | Product List | Glossary On
Versions: 1 2 3 4 5 6 7 8 9 10 11 12 13 14 15 16 17 18 19 20 21 22 23 24 25 26 27 28 29 30 31 32 33 34 35 36 37 38 39 40 41 42 43 44 45 46 47 48 49 50
000
ASUS43 KDTX 041701
RWRMI
MICHIGAN HOURLY REGIONAL WEATHER ROUNDUP
NATIONAL WEATHER SERVICE DETROIT/PONTIAC MI
100 PM EDT SAT JUL 04 2015

NOTE: "FAIR" INDICATES FEW OR NO CLOUDS BELOW 12,000 FEET WITH NO
SIGNIFICANT WEATHER AND/OR OBSTRUCTION TO VISIBILITY.

MIZ047>049-052>055-059>063-066>070-074>076-081>083-041800-
SOUTHEAST LOWER MICHIGAN

CITY           SKY/WX    TMP DP  RH WIND       PRES   REMARKS
ADRIAN         SUNNY     75  50  41 CALM      30.01S
ALMA           SUNNY     76  53  43 CALM      29.99S
ANN ARBOR      SUNNY     76  54  46 MISG      30.00S
BAD AXE        SUNNY     76  51  40 W7        29.98S
CARO           SUNNY     76  56  49 SW3       29.98F
DETROIT CITY   SUNNY     75  49  39 CALM      29.99S
DETROIT        SUNNY     76  50  40 VRB3      30.00S
FLINT          SUNNY     78  53  41 VRB6      30.00S
GROSSE ILE     SUNNY     75  48  38 SE3       29.99S
HILLSDALE      MOSUNNY   74  54  49 NE5       30.02S
HOWELL         SUNNY     76  51  41 NW3       30.00F

CITY           SKY/WX    TMP DP  RH WIND       PRES   REMARKS
JACKSON        SUNNY     75  55  49 W3        30.01S
LAMBERTVILLE   SUNNY     76  53  44 CALM      30.00F
LANSING        SUNNY     76  57  51 W5        30.01S
LAPEER         FAIR      76  50  40 CALM      30.00S
MASON          SUNNY     73  53  48 CALM      30.01S
MONROE         SUNNY     74  51  43 CALM      29.99S
MT. CLEMENS    MOSUNNY   74  55  50 SE6       29.98S
PONTIAC        MOSUNNY   76  52  43 VRB5      29.99S
PORT HOPE        N/A     75  57  53 CALM      29.96S
PORT HURON     SUNNY     73  54  49 CALM      29.99S
TRI CITIES     SUNNY     78  54  43 W6        29.99R
MIDLAND        FAIR      79  57  47 CALM      29.97F
TROY           SUNNY     76  50  39 CALM      30.01S
SAGINAW HB     SUNNY     79  52  38 SW7       29.98S
$$
MIZ043>046-050>051-056>058-064>065-071>073-077>080-041800-
SOUTHWEST LOWER MICHIGAN

CITY           SKY/WX    TMP DP  RH WIND       PRES   REMARKS
BATTLE CREEK   SUNNY     75  57  53 S5        30.02S
BENTON HARBOR  SUNNY     75  57  53 NW7       30.01S
BIG RAPIDS     SUNNY     78  54  43 W8        29.97F
COLDWATER      SUNNY     73  54  51 CALM      30.01F
FREMONT        FAIR      77  57  49 W5        29.98S
HOLLAND        SUNNY     76  58  53 SW6       30.01S
GRAND RAPIDS   PTSUNNY   77  55  46 NW5       30.00S
IONIA          FAIR      75  55  49 NW3       30.00S
KALAMAZOO      SUNNY     77  54  44 CALM      30.02S
LUDINGTON      SUNNY     71  62  72 SW7       29.99R
MARSHALL       SUNNY     74  55  52 CALM      30.01S
MOUNT PLEASANT SUNNY     79  57  48 SW5       29.97F
MUSKEGON       PTSUNNY   72  58  61 SW9       30.00S
SOUTH HAVEN    SUNNY     74  55  52 NW5       30.01F
$$
MIZ016>042-041800-
NORTHERN LOWER MICHIGAN

CITY           SKY/WX    TMP DP  RH WIND       PRES   REMARKS
ALPENA         SUNNY     79  56  45 N5        29.95F
BEAVER ISLAND  SUNNY     73  58  59 W5        29.98S
BELLAIRE       SUNNY     76  56  49 NE6       29.97S
CADILLAC       MOSUNNY   79  60  51 W7        29.98S
CHARLEVOIX     SUNNY     67  57  70 N7        30.01S
FRANKFORT      SUNNY     75  55  50 W6        29.98S
GAYLORD        SUNNY     75  54  47 VRB5      29.98S
GRAYLING       MOSUNNY   78  59  52 NW7       29.98S
HARBOR SPRINGS SUNNY     66  58  75 SW7       29.97S
HOUGHTON LAKE  SUNNY     77  58  51 VRB6      29.98S
MANISTEE       SUNNY     73  59  60 W6        29.98S
OSCODA         PTSUNNY   77  56  47 E10       29.95S
PELLSTON       SUNNY     77  56  48 N9        29.97R
ROGERS CITY    SUNNY     67  60  79 N9        29.98R
TRAVERSE CITY  PTSUNNY   75  58  55 N8        29.96S
$$
MIZ007>008-015-041800-
EASTERN UPPER MICHIGAN

CITY           SKY/WX    TMP DP  RH WIND       PRES   REMARKS
KINROSS        SUNNY     64  57  77 N6        29.98S
MACKINAC ISLAN SUNNY     67  59  75 W6        29.97S
NEWBERRY       MOSUNNY   69  60  75 NE6       29.98S
S. S. MARIE    SUNNY     68  59  73 VRB3      29.96F
$$
MIZ004>006-011>014-085-041800-
CENTRAL UPPER MICHIGAN

CITY           SKY/WX    TMP DP  RH WIND       PRES   REMARKS
MANISTIQUE     MOSUNNY   74  58  55 N6        29.97S
ESCANABA       PTSUNNY   75  61  60 NE7       29.96S
MENOMINEE      SUNNY     72  59  64 SE5       29.98S
SAWYER-GWINN   SUNNY     66  55  68 NE7       30.00S
$$
MIZ001>003-009>011-084-041800-
WESTERN UPPER MICHIGAN

CITY           SKY/WX    TMP DP  RH WIND       PRES   REMARKS
IRON MOUNTAIN  SUNNY     75  59  57 CALM      29.97F
HOUGHTON       PTSUNNY   70  56  61 SE5       29.99S
COPPER HARBOR    N/A     52  48  86 E3        29.99S
IRONWOOD       SUNNY     75  54  46 SE5       29.94S
$$

ABBREVIATIONS USED IN REMARKS
   TC - TEMPERATURE IN CELSIUS
  WCI - WIND CHILL INDEX
   HX - HEAT INDEX
  VSB - VISIBILITY




USA.gov is the U.S. government's official web portal to all federal, state and local government web resources and services.